Weather History for K8D3 - August, 2014

Change the Weather History Date:

Sunday, August 17, 2014

  Actual Average Record
Temperature  
Mean Temperature 73 °F 69 °F  
Max Temperature 81 °F 81 °F 102 °F (1976)
Min Temperature 65 °F 58 °F 42 °F (2012)
Degree Days  
Heating Degree Days 0 1  
Month to date heating degree days 3 8  
Since 1 June heating degree days 58 83  
Since 1 July heating degree days 23 21  
Cooling Degree Days 8 5  
Month to date cooling degree days 68 100  
Year to date cooling degree days 347 422  
Since 1 June cooling degree days 286 399  
Growing Degree Days 24 (Base 50)    
Moisture  
Dew Point 69 °F    
Average Humidity 87    
Maximum Humidity 100    
Minimum Humidity 74    
Precipitation  
Precipitation 0.01 in 0.06 in 1.87 in (2005)
Month to date precipitation 0.48 1.38  
Year to date precipitation 19.26 15.68  
Sea Level Pressure  
Sea Level Pressure 29.83 in    
Wind  
Wind Speed 4 mph (NNE)    
Max Wind Speed 17 mph    
Max Gust Speed 27 mph    
T = Trace of Precipitation, MM = Missing Value Source: NWS Daily Summary

Daily Weather History Graph

Daily Weather History Graph

Search for Another Location

Airport or City:

Trip Planner

Search our weather history database for the weather conditions in past years. The results will help you decide how hot, cold, wet, or windy it might be!

Date:

Astronomy

Aug. 17, 2014 Rise Set
Actual Time 6:30 AM CDT 8:32 PM CDT
Civil Twilight 5:58 AM CDT 9:04 PM CDT
Nautical Twilight 5:18 AM CDT 9:43 PM CDT
Astronomical Twilight 4:34 AM CDT 10:27 PM CDT
Moon No Moon Rise 2:42 PM CDT (8/17)
Length of Visible Light 15h 05m
Length of Day
14h 01m
Waning Gibbous, 48% of the Moon is Illuminated
Aug 17
Waning Gibbous
Aug 25
New
Sep 2
First Quarter
Sep 8
Full
Sep 15
Last Quarter

Hourly Weather History & Observations

Time (CDT) Temp. Heat Index Dew Point Humidity Pressure Visibility Wind Dir Wind Speed Gust Speed Precip Events Conditions
12:56 AM 71.1 °F - 70.0 °F 96% 29.84 in - NNE 4.6 mph - N/A   Unknown
1:56 AM 71.1 °F - 69.1 °F 93% 29.83 in - Calm Calm - N/A   Unknown
2:56 AM 69.1 °F - 66.9 °F 93% 29.83 in - SE 3.5 mph - N/A   Unknown
3:56 AM 69.1 °F - 66.0 °F 90% 29.83 in - Calm Calm - N/A   Unknown
4:56 AM 68.0 °F - 66.0 °F 93% 29.83 in - West 3.5 mph - N/A   Unknown
5:56 AM 69.1 °F - 66.9 °F 93% 29.83 in - Calm Calm - N/A   Unknown
6:56 AM 68.0 °F - 68.0 °F 100% 29.84 in - Calm Calm - N/A   Unknown
7:56 AM 68.0 °F - 66.9 °F 96% 29.85 in - WNW 4.6 mph - N/A   Unknown
8:56 AM 71.1 °F - 68.0 °F 90% 29.86 in - NE 6.9 mph - N/A   Unknown
9:56 AM 71.1 °F - 69.1 °F 93% 29.86 in - NNE 4.6 mph - N/A   Unknown
10:56 AM 73.0 °F - 70.0 °F 90% 29.88 in - North 4.6 mph - N/A   Unknown
11:56 AM 75.0 °F - 70.0 °F 84% 29.87 in - NNE 4.6 mph - N/A   Unknown
12:56 PM 75.9 °F - 71.1 °F 85% 29.87 in - NE 5.8 mph - N/A   Unknown
1:56 PM 78.1 °F - 70.0 °F 76% 29.85 in - Variable 3.5 mph - N/A   Unknown
2:56 PM 80.1 °F 83.6 °F 71.1 °F 74% 29.85 in - North 8.1 mph - N/A   Unknown
3:56 PM 78.1 °F - 71.1 °F 79% 29.85 in - North 6.9 mph - N/A   Unknown
4:56 PM 80.1 °F 83.6 °F 71.1 °F 74% 29.81 in - NNE 8.1 mph - N/A   Unknown
5:56 PM 79.0 °F - 70.0 °F 74% 29.80 in - NNE 5.8 mph - N/A   Unknown
6:56 PM 79.0 °F - 72.0 °F 79% 29.78 in - East 8.1 mph - N/A   Unknown
7:56 PM 73.0 °F - 71.1 °F 93% 29.81 in - East 4.6 mph - N/A   Unknown
8:56 PM 70.0 °F - 69.1 °F 97% 29.82 in - Calm Calm - N/A   Unknown
9:56 PM 69.1 °F - 69.1 °F 100% 29.83 in - Calm Calm - N/A   Unknown
10:56 PM 71.1 °F - 70.0 °F 96% 29.82 in - South 3.5 mph - N/A   Unknown
11:56 PM 68.0 °F - 64.9 °F 90% 29.78 in - NNW 3.5 mph - 0.01 in   Unknown